UWE-4

Last updated on Sun Jan 18 2026 00:03:08 GMT+0000 (Coordinated Universal Time)

1 43880U 18111E 26017.28268937 .00026991 00000+0 76063-3 0 9997 2 43880 97.5868 299.8470 0010858 133.8316 226.3827 15.36350610387530
UTC large
Height (km)
Speed (km/s)
/
Latitude / Longitude
Inclination (degrees)
Orbital Period (minutes)
Azimuth
Elevation
Range (km)
Doppler Factor

Next 0 passes for location: London (51.5072 / 0.1276)

Sorry there are no passes over London.